User: anonymous   Login
Location: *
(33.8649°S, 62.1526°E)
Time: 00:01:29
(UTC+00:00)
Language:

COSMOS 2428 - Orbit

View from above orbital plane
View from above orbital plane
View from above satellite
View from above satellite

Ground track
Ground track

The orbit data is extracted from the following two-line orbital elements,

1 31792U 07029A   21110.75135099  .00000174  00000-0  12056-3 0  9993
2 31792  70.8952 347.2441 0008874 304.3100  55.7180 14.12250912712258
Epoch (UTC): 20 April 2021 18:01:56
Eccentricity: 0.0008874
inclination: 70.8952°
perigee height: 845 km
apogee height: 858 km
right ascension of ascending node: 347.2441°
argument of perigee: 304.3100°
revolutions per day: 14.12250912
mean anomaly at epoch: 55.7180°
orbit number at epoch: 71225

The dashed part of the orbit path shows where the satellite is in the earth's shadow,  

DLR